カタログに戻る

CZ-6A DEB

運用中SSO
NORAD 58432·DEBRIS·🇨🇳 China

打ち上げ Nov 11, 2022 から Taiyuan Satellite Launch Center

Loading…

次のパス (今後24時間)

TLE

経年Source: Space-Track

元期: Sep 10, 2026, 08:32 UTC

1 58432U 22151AJA 26253.35569416  .00000571  00000-0  27183-3 0  9997
2 58432  98.7869 277.5453 0013992 102.0744 258.2002 14.23212311173400

AllMySatでCZ-6A DEBをリアルタイム追跡

Download on the App Store